Location: Conjunto Santa Maria
(19.9513°S, 43.9599°W)
Time: 13:44:50
(UTC+00:00)

GPS 2-18 Rocket1 - Pass Details

Date: 21 January 2021
Orbit: 457 x 512 km, 20.9° (Epoch: 03 March)

Event Time Altitude Azimuth Distance (km) Brightness Sun altitude
Rises 22:48:22 0° 271° (W) 2,556 7.8 -15.2°
Reaches altitude 10° 22:50:34 10° 270° (W) 1,685 6.8 -15.7°
Maximum altitude 22:54:29 78° 183° (S) 514 3.1 -16.5°
Enters shadow 22:56:20 30° 100° (E) 921 4.0 -16.9°
